Weather History for Wink, TX

Change the Weather History Date:

Wednesday, January 4, 2012

  Actual Average Record
Temperature  
Mean Temperature 47 °F -  
Max Temperature 64 °F 53 °F 77 °F (2005)
Min Temperature 30 °F 26 °F 8 °F (1959)
Degree Days  
Heating Degree Days 18    
Moisture  
Dew Point 25 °F    
Average Humidity 46    
Maximum Humidity 79    
Minimum Humidity 19    
Precipitation  
Precipitation 0.00 in - - ()
Sea Level Pressure  
Sea Level Pressure 30.29 in    
Wind  
Wind Speed 7 mph (North)    
Max Wind Speed 16 mph    
Max Gust Speed 25 mph    
Visibility 10 miles    
Events      
Averages and records for this station are not official NWS values.
T = Trace of Precipitation, MM = Missing Value Source: NWS Daily Summary

Daily Weather History Graph

Daily Weather History Graph

Search for Another Location

Airport:

Trip Planner

Search our weather history database for the weather conditions in past years. The results will help you decide how hot, cold, wet, or windy it might be!

Date:

Astronomy

Jan. 04, 2012 Rise Set
Actual Time 7:53 AM CST 6:02 PM CST
Civil Twilight 7:26 AM CST 6:28 PM CST
Nautical Twilight 6:56 AM CST 6:59 PM CST
Astronomical Twilight 6:26 AM CST 7:28 PM CST
Moon 2:24 PM CST (1/4) 3:46 AM CST (1/4)
Length of Visible Light 11h 02m
Length of Day
10h 08m
Waxing Gibbous, 81% of the Moon is Illuminated
Jan 4
Waxing Gibbous
Jan 9
Full
Jan 16
Last Quarter
Jan 23
New
Jan 30
First Quarter

Hourly Weather History & Observations

Time (CST) Temp. Windchill Dew Point Humidity Pressure Visibility Wind Dir Wind Speed Gust Speed Precip Events Conditions
12:53 AM 37.9 °F - 25.0 °F 60% 30.13 in 10.0 mi Calm Calm - N/A   Clear
1:53 AM 33.1 °F 30.0 °F 25.0 °F 72% 30.12 in 10.0 mi NW 3.5 mph - N/A   Clear
2:53 AM 30.9 °F 26.2 °F 25.0 °F 79% 30.13 in 10.0 mi NNW 4.6 mph - N/A   Clear
3:53 AM 33.8 °F 26.4 °F 26.6 °F 75% 30.17 in 10.0 mi NNW 9.2 mph - N/A   Clear
4:53 AM 36.0 °F 33.3 °F 27.0 °F 70% 30.14 in 10.0 mi WNW 3.5 mph - N/A   Clear
5:53 AM 37.9 °F 30.9 °F 28.0 °F 68% 30.16 in 10.0 mi North 10.4 mph - N/A   Clear
6:53 AM 44.1 °F 36.8 °F 28.0 °F 53% 30.22 in 10.0 mi North 16.1 mph - N/A   Clear
7:53 AM 41.0 °F 34.7 °F 27.0 °F 57% 30.28 in 10.0 mi NNW 10.4 mph - N/A   Clear
8:53 AM 45.0 °F 38.9 °F 28.0 °F 52% 30.32 in 10.0 mi NNW 12.7 mph - N/A   Clear
9:53 AM 48.9 °F - 28.0 °F 44% 30.37 in 10.0 mi North 13.8 mph - N/A   Clear
10:53 AM 55.9 °F - 26.1 °F 32% 30.40 in 10.0 mi NNE 16.1 mph 25.3 mph N/A   Clear
11:53 AM 57.9 °F - 25.0 °F 28% 30.39 in 10.0 mi NNE 12.7 mph 20.7 mph N/A   Clear
12:53 PM 61.0 °F - 24.1 °F 24% 30.36 in 10.0 mi NE 13.8 mph - N/A   Clear
1:53 PM 63.0 °F - 23.0 °F 22% 30.33 in 10.0 mi NE 10.4 mph - N/A   Clear
2:53 PM 64.9 °F - 23.0 °F 20% 30.31 in 10.0 mi NNE 9.2 mph - N/A   Clear
3:53 PM 64.0 °F - 23.0 °F 21% 30.31 in 10.0 mi NNE 11.5 mph - N/A   Clear
4:53 PM 64.0 °F - 21.0 °F 19% 30.32 in 10.0 mi NE 15.0 mph - N/A   Clear
5:53 PM 57.9 °F - 21.0 °F 24% 30.33 in 10.0 mi NNE 4.6 mph - N/A   Clear
6:53 PM 52.0 °F - 21.0 °F 30% 30.34 in 10.0 mi NE 5.8 mph - N/A   Clear
7:53 PM 46.9 °F - 21.0 °F 36% 30.36 in 10.0 mi Calm Calm - N/A   Clear
8:53 PM 42.8 °F 39.3 °F 23.0 °F 46% 30.39 in 10.0 mi NNW 5.8 mph - N/A   Clear
9:53 PM 39.9 °F 35.8 °F 23.0 °F 51% 30.38 in 10.0 mi NNW 5.8 mph - N/A   Clear
10:53 PM 36.0 °F 30.3 °F 24.1 °F 62% 30.36 in 10.0 mi NNW 6.9 mph - N/A   Clear
11:53 PM 34.0 °F 29.8 °F 24.1 °F 67% 30.36 in 10.0 mi NNW 4.6 mph - N/A   Clear